Theta_e
312 312 312 313 311 313 314 315 313 307 308 314 316 325 324 325 324 326 326 323 322 321 320 320 321 322 324 325 326 327 328 329 330 332 334 335 337 340
308 307 307 307 307 310 309 309 309 306 302 310 312 317 320 321 323 325 325 323 321 320 320 320 319 319 320 320 320 321 323 324 325 326 328 330 330 333
305 304 304 305 303 304 303 305 306 307 302 303 307 311 313 315 317 320 322 323 324 319 320 319 317 317 317 317 317 318 320 321 322 323 324 325 326 329
302 302 302 303 302 303 302 302 302 303 300 299 302 304 306 309 311 312 315 319 321 321 319 318 316 315 314 314 314 314 314 316 317 318 319 321 323 325
302 302 302 302 301 301 300 299 300 300 301 300 299 301 302 304 303 309 312 312 313 319 317 317 316 316 315 314 313 312 312 310 309 311 315 317 318 319
303 302 302 302 302 301 301 300 300 299 300 299 299 299 300 302 302 302 303 309 310 313 314 314 313 315 315 315 315 315 311 309 307 309 309 307 308 310
302 302 303 304 306 306 305 304 304 302 300 299 298 299 298 298 297 300 299 300 305 309 310 309 311 313 317 315 317 317 313 309 307 308 307 304 303 304
301 303 303 304 304 304 304 304 304 301 300 299 299 297 299 300 300 298 298 298 298 307 304 304 310 311 313 317 314 310 310 309 308 307 306 303 302 301
303 304 304 305 305 305 304 304 304 303 303 302 299 299 299 301 301 299 298 298 298 303 304 301 308 307 310 312 308 308 307 306 306 306 305 303 301 301
306 306 305 305 306 305 304 304 304 304 304 304 303 303 303 304 303 302 301 301 301 302 303 300 305 305 309 314 309 307 305 303 303 303 301 301 300 300
306 306 307 306 303 299 303 302 302 303 305 303 301 300 299 298 300 301 299 299 298 300 304 302 304 305 309 311 315 308 306 303 302 302 302 301 301 302
306 306 303 302 298 297 300 300 299 301 303 303 303 302 301 301 300 301 300 297 298 298 305 303 304 308 307 316 315 317 317 305 303 302 302 304 302 313
301 304 307 300 297 296 296 298 299 303 301 300 301 302 303 303 303 304 304 301 299 299 307 307 309 309 309 310 313 314 315 313 313 310 300 300 299 308
301 305 306 299 296 295 297 296 295 297 300 300 299 299 301 303 304 305 306 306 305 304 308 309 308 310 310 309 311 311 310 310 310 308 306 300 298 299
306 303 297 296 298 305 301 299 302 309 311 311 310 307 308 310 311 311 310 308 308 308 309 310 308 309 309 311 311 309 307 307 308 306 305 306 308 308
303 306 304 302 300 303 305 306 308 307 308 312 313 312 313 313 312 311 307 307 306 306 311 313 313 313 310 313 314 309 306 305 304 302 301 299 303 305
302 305 304 303 302 301 302 302 304 304 304 309 314 311 310 310 312 314 311 309 307 305 304 303 303 302 299 303 303 303 301 301 301 301 299 295 295 298
300 299 298 300 299 298 297 297 298 299 301 305 309 315 312 309 311 312 312 308 306 305 304 304 304 305 304 300 297 299 299 296 295 295 298 294 291 294
293 293 294 294 297 296 296 295 295 296 299 300 303 307 315 314 312 311 311 311 307 305 304 306 309 307 302 299 297 296 298 295 293 291 292 292 290 291
290 291 291 292 293 294 293 293 293 294 293 295 298 301 306 312 312 312 310 310 307 305 302 300 300 302 303 301 292 292 292 294 291 290 290 292 292 293
288 289 289 289 290 292 292 291 291 291 291 291 293 296 299 307 310 309 308 299 302 303 300 298 298 291 297 298 291 290 293 294 295 293 293 292 291 289
286 287 288 288 289 289 289 288 288 288 288 288 289 291 295 300 306 309 307 304 303 301 299 298 297 300 297 294 290 290 291 292 294 295 296 295 293 289
285 286 286 287 287 288 287 286 286 286 286 286 287 288 290 294 301 309 308 305 304 302 301 297 296 294 293 291 290 290 289 290 290 289 291 294 294 293
Wind_Speed
6 5 3 4 4 3 4 4 6 9 13 8 8 6 6 6 8 9 10 12 13 12 13 13 14 13 12 12 10 10 10 10 11 11 12 11 12 13
2 3 4 2 3 2 2 3 4 7 12 5 8 9 9 9 12 13 11 13 12 10 12 12 11 11 12 12 13 11 11 11 11 11 13 12 12 13
4 5 7 5 4 4 5 5 5 6 11 14 9 10 13 14 13 12 11 11 9 12 12 12 10 9 11 12 13 13 13 13 12 12 13 12 11 13
7 6 7 6 7 6 6 7 7 7 8 18 10 10 12 12 15 16 13 12 12 12 10 10 10 11 12 13 15 14 14 14 14 12 12 11 9 11
8 8 9 9 9 8 8 8 8 8 9 11 13 9 8 9 12 13 14 14 13 19 14 13 13 13 12 14 15 15 15 14 12 13 13 12 7 10
9 9 10 11 11 11 10 10 9 10 10 10 11 11 9 8 7 10 13 11 11 10 13 12 12 11 14 15 16 16 15 15 15 15 14 11 11 11
9 10 10 12 19 17 11 11 11 11 11 11 11 12 10 9 9 8 10 10 10 8 8 7 9 10 9 13 18 15 14 13 13 14 11 8 9 9
10 10 11 14 13 17 19 21 18 14 15 13 12 14 16 11 10 10 10 10 12 8 11 13 11 10 10 10 12 14 13 13 13 13 11 9 10 12
10 10 11 9 12 12 14 17 18 20 22 16 17 16 16 14 12 13 12 11 12 10 9 13 10 11 10 10 12 13 13 13 14 13 10 8 10 12
10 12 12 14 14 13 13 15 16 16 16 13 16 17 16 15 14 13 13 13 11 10 10 12 10 11 10 9 11 12 10 10 10 9 10 12 11 12
10 11 12 14 20 15 13 15 16 19 18 22 25 28 28 23 19 11 12 9 10 9 8 9 8 10 9 10 9 13 13 9 6 10 11 11 12 10
10 12 13 13 18 18 12 14 15 19 17 17 15 17 20 19 25 18 14 12 10 7 8 7 8 6 5 4 7 6 5 6 6 5 8 10 11 6
8 9 9 16 17 19 20 13 16 17 19 14 11 11 11 11 11 12 12 12 11 11 3 7 5 5 4 2 1 2 1 2 2 1 3 6 9 10
7 8 10 19 25 21 14 17 22 20 9 8 6 9 8 8 9 10 11 10 11 12 4 8 2 1 2 2 1 1 2 2 1 1 1 2 3 1
6 12 20 17 14 11 20 20 19 13 12 8 7 6 7 7 7 3 1 4 4 6 7 6 5 5 4 1 2 1 2 2 3 3 2 2 2 2
11 8 11 9 10 12 16 15 13 13 13 12 8 8 8 8 6 4 2 3 2 2 3 2 1 5 4 3 3 2 3 1 2 4 3 5 5 5
9 8 12 14 14 14 14 15 14 14 14 14 9 8 10 9 8 6 3 1 3 2 2 5 10 12 10 7 5 5 4 4 5 4 4 5 7 7
8 10 10 10 12 12 13 14 14 18 14 12 12 9 8 8 8 8 7 7 6 6 5 4 5 5 3 11 19 5 6 5 5 7 5 6 8 9
11 11 11 11 10 11 11 12 13 13 15 13 13 14 10 7 8 7 6 6 8 7 6 4 3 5 7 3 3 20 3 5 6 10 8 7 7 8
10 10 10 10 11 11 12 12 13 13 14 13 13 13 13 12 9 7 7 7 8 8 7 7 6 5 2 3 4 5 14 6 8 9 7 8 8 14
10 10 10 10 11 11 12 12 13 13 13 13 13 13 13 12 10 10 7 9 8 6 7 6 4 4 4 4 4 4 8 18 10 5 5 6 6 7
9 10 10 11 11 11 13 13 13 13 13 13 13 13 13 12 12 9 8 6 6 5 4 3 5 3 5 4 6 5 4 6 12 17 9 4 3 6
10 9 9 10 10 10 11 12 12 12 13 13 13 13 13 12 12 10 6 4 4 4 3 3 4 5 6 5 6 7 10 9 7 12 14 25 30 31
Wind_Direction
13 14 6 19 14 356 346 334 284 291 288 274 278 271 291 291 283 277 270 259 257 248 258 265 270 269 260 259 251 249 247 239 234 244 252 260 260 255
337 331 354 303 339 282 312 289 277 282 284 305 300 298 300 298 294 288 284 270 262 247 247 257 250 247 257 258 264 262 257 253 250 239 239 240 251 252
323 326 326 313 300 309 277 279 258 252 274 295 301 295 284 279 280 283 285 285 280 249 249 252 268 271 258 255 258 256 253 250 241 248 248 243 242 241
314 310 295 295 280 275 271 260 256 254 270 286 299 299 298 298 287 278 277 280 287 280 265 257 255 262 267 262 257 255 256 245 241 245 241 239 246 251
291 289 291 293 288 276 269 268 263 263 255 270 286 284 289 295 295 294 280 269 267 265 263 249 245 250 260 264 260 256 253 247 238 229 222 216 231 258
286 287 284 279 274 273 269 268 266 263 263 264 275 278 272 261 251 282 283 270 268 264 263 266 277 263 258 265 264 262 253 240 232 220 209 203 209 229
277 268 266 265 279 284 283 280 275 269 274 267 271 273 274 277 266 268 272 281 285 279 275 274 279 274 263 253 263 256 246 233 216 214 211 212 233 222
292 292 273 281 290 285 281 278 266 273 273 273 274 271 276 272 267 269 271 272 278 254 263 267 259 261 259 255 250 248 234 223 217 211 205 212 234 244
289 294 298 290 294 291 285 280 276 265 252 258 264 264 270 263 263 265 263 259 262 266 264 274 274 274 268 266 252 254 248 232 214 209 212 216 234 238
296 293 294 296 288 284 288 289 281 273 265 258 255 261 257 257 253 258 263 265 266 265 255 261 258 262 265 260 251 252 241 214 208 209 227 240 235 238
295 293 291 294 291 294 298 296 292 284 281 262 255 260 261 259 251 263 255 260 260 254 238 238 252 258 262 263 251 231 226 231 238 236 212 227 235 234
319 308 299 285 287 296 292 283 281 279 282 286 272 261 260 256 250 241 249 242 240 264 230 219 236 238 252 242 248 239 222 192 205 234 245 220 212 217
306 315 313 305 304 298 297 287 276 282 292 294 282 271 267 259 251 244 231 226 232 235 229 195 227 205 227 311 113 81 173 164 198 205 256 231 195 209
305 310 307 310 307 304 309 296 294 299 276 272 269 273 272 264 252 245 235 222 220 229 195 227 286 139 218 170 174 112 53 43 69 63 345 73 169 192
331 312 304 311 326 354 345 338 340 345 338 328 340 316 291 282 262 249 88 90 156 193 212 202 217 259 238 263 117 129 134 29 62 74 64 62 149 145
339 334 329 322 3 5 359 354 352 346 346 347 347 344 347 0 32 56 59 91 84 141 215 235 270 358 332 341 349 104 51 114 52 45 47 40 28 40
334 7 19 14 9 4 2 355 352 358 2 344 354 358 7 7 20 23 71 116 59 71 66 52 77 78 58 23 53 43 61 60 41 47 57 67 35 25
13 25 15 11 8 3 1 356 354 353 354 348 354 358 6 11 18 28 46 57 60 66 89 104 123 121 93 63 45 28 53 49 37 38 33 74 57 28
28 18 10 358 0 1 0 358 355 350 348 355 357 356 356 9 11 19 23 38 62 55 40 22 51 73 87 84 33 22 37 52 70 62 40 57 76 45
17 10 7 357 354 359 356 356 353 356 354 354 357 354 348 8 14 18 21 30 45 46 48 33 34 27 45 75 99 21 22 80 83 91 85 78 79 73
8 5 2 359 357 352 358 355 354 355 353 351 353 352 351 348 14 16 18 32 51 54 56 43 35 55 114 106 82 54 47 48 55 82 102 77 77 66
6 358 1 3 357 350 0 357 354 356 355 352 349 347 344 342 349 9 15 23 36 50 67 37 11 36 51 76 83 88 72 52 50 57 56 75 152 123
1 356 358 357 356 352 4 357 353 351 350 347 344 344 339 340 342 345 11 25 28 24 7 45 30 42 77 92 94 90 78 61 62 66 58 79 89 93